Wetterdaten: Woche 07.04.08 - 13.04.08 (KW15)
Datum Zeit Temp. a Sch. Temp. a Son. Temp. a Bod. Feuchte a. Luftdruck Regen Wind Richtung Sonnenschein Helligkeit Taupunkt Windchill
07.04.2008 00:00 1,0 C 1,8 C 1,1 C 89 % 998 hPa 0,0 l/m 1,6 m/s (2 Bft) O-SO 0,00 h 0 lux -0,6 C -0,1 C
07.04.2008 01:00 0,9 C 1,8 C 1,0 C 90 % 998 hPa 0,0 l/m 3,1 m/s (2 Bft) O-SO 0,00 h 0 lux -0,5 C -3,0 C
07.04.2008 02:00 0,7 C 1,6 C 0,8 C 92 % 997 hPa 0,0 l/m 2,9 m/s (2 Bft) O 0,00 h 0 lux -0,4 C -2,9 C
07.04.2008 03:00 0,8 C 1,6 C 0,6 C 92 % 997 hPa 0,0 l/m 2,6 m/s (2 Bft) O 0,00 h 0 lux -0,4 C -1,9 C
07.04.2008 04:00 0,8 C 1,6 C 0,5 C 92 % 997 hPa 0,4 l/m 0,7 m/s (1 Bft) O-NO 0,00 h 0 lux -0,4 C 0,8 C
07.04.2008 05:00 0,6 C 1,5 C -0,2 C 93 % 997 hPa 0,0 l/m 0,6 m/s (1 Bft) O 0,00 h 0 lux -0,4 C 0,6 C
07.04.2008 06:00 0,3 C 1,2 C -0,6 C 94 % 996 hPa 0,0 l/m 0,0 m/s (0 Bft) N 0,00 h 48 lux -0,5 C 0,3 C
07.04.2008 07:00 0,5 C 1,2 C -0,5 C 93 % 996 hPa 0,0 l/m 0,0 m/s (0 Bft) N 0,00 h 526 lux -0,5 C 0,5 C
07.04.2008 08:00 1,0 C 1,6 C -0,4 C 92 % 996 hPa 0,0 l/m 0,0 m/s (0 Bft) N 0,00 h 3,31 klux -0,1 C 1,0 C
07.04.2008 09:00 1,8 C 2,5 C -0,3 C 90 % 997 hPa 0,4 l/m 0,0 m/s (0 Bft) N 0,00 h 13,5 klux 0,3 C 1,8 C
07.04.2008 10:00 3,0 C 3,1 C 0,5 C 84 % 997 hPa 0,4 l/m 0,6 m/s (1 Bft) SW 0,00 h 21,9 klux 0,6 C 3,0 C
07.04.2008 11:00 2,6 C 2,9 C 0,7 C 85 % 998 hPa 0,7 l/m 2,4 m/s (2 Bft) S-SW 0,00 h 18,4 klux 0,4 C 0,8 C
07.04.2008 12:00 3,8 C 3,5 C 1,1 C 81 % 998 hPa 1,4 l/m 3,0 m/s (2 Bft) S 0,17 h 44,9 klux 0,8 C 0,4 C
07.04.2008 13:00 2,8 C 3,4 C 1,0 C 84 % 998 hPa 1,1 l/m 2,8 m/s (2 Bft) W-SW 0,00 h 17,7 klux 0,4 C -0,3 C
07.04.2008 14:00 2,6 C 3,3 C 1,3 C 87 % 1000 hPa 1,8 l/m 3,6 m/s (3 Bft) W-SW 0,00 h 22,3 klux 0,7 C -2,4 C
07.04.2008 15:00 3,0 C 3,7 C 1,5 C 86 % 1000 hPa 2,5 l/m 4,4 m/s (3 Bft) W-SW 0,00 h 23,4 klux 0,8 C -3,7 C
07.04.2008 16:00 4,5 C 6,7 C 2,6 C 79 % 1000 hPa 2,9 l/m 6,5 m/s (4 Bft) W 0,67 h 48,2 klux 1,1 C -5,0 C
07.04.2008 17:00 4,8 C 8,4 C 2,8 C 76 % 1000 hPa 1,8 l/m 4,5 m/s (3 Bft) W 0,50 h 36,8 klux 0,9 C -1,7 C
07.04.2008 18:00 4,3 C 8,7 C 2,8 C 76 % 1004 hPa 0,7 l/m 2,9 m/s (2 Bft) W-SW 0,67 h 19,6 klux 0,5 C 1,1 C
07.04.2008 19:00 3,4 C 5,2 C 2,1 C 81 % 1004 hPa 0,7 l/m 3,4 m/s (3 Bft) W-SW 0,33 h 5,54 klux 0,4 C -1,3 C
07.04.2008 20:00 1,8 C 2,9 C 0,9 C 85 % 1004 hPa 0,0 l/m 1,7 m/s (2 Bft) W-SW 0,00 h 130 lux -0,5 C -0,4 C
07.04.2008 21:00 0,8 C 1,7 C 0,3 C 89 % 1005 hPa 0,0 l/m 0,3 m/s (0 Bft) SW 0,00 h 0 lux -0,8 C 0,8 C
07.04.2008 22:00 -0,6 C 0,5 C -0,8 C 89 % 1005 hPa 0,0 l/m 0,2 m/s (0 Bft) N 0,00 h 0 lux -2,1 C -0,6 C
07.04.2008 23:00 -1,4 C -0,5 C -1,3 C 91 % 1005 hPa 0,0 l/m 0,0 m/s (0 Bft) N 0,00 h 0 lux -2,6 C -1,4 C
08.04.2008 00:00 -1,7 C -1,1 C -1,5 C 93 % 1005 hPa 0,0 l/m 0,5 m/s (1 Bft) SW 0,00 h 0 lux -2,7 C -1,7 C
08.04.2008 01:00 -2,0 C -1,2 C -1,5 C 94 % 1006 hPa 0,0 l/m 0,0 m/s (0 Bft) N 0,00 h 0 lux -2,9 C -2,0 C
08.04.2008 02:00 -2,2 C -1,3 C -1,8 C 95 % 1006 hPa 0,0 l/m 0,0 m/s (0 Bft) N 0,00 h 0 lux -2,9 C -2,2 C
08.04.2008 03:00 -1,9 C -1,0 C -1,4 C 95 % 1006 hPa 0,0 l/m 0,0 m/s (0 Bft) N 0,00 h 0 lux -2,6 C -1,9 C
08.04.2008 04:00 -1,3 C -0,5 C -1,2 C 95 % 1006 hPa 0,0 l/m 0,2 m/s (0 Bft) W-SW 0,00 h 0 lux -2,0 C -1,3 C
08.04.2008 05:00 -1,3 C -0,4 C -1,2 C 95 % 1006 hPa 0,0 l/m 0,2 m/s (0 Bft) S-SO 0,00 h 0 lux -2,0 C -1,3 C
08.04.2008 06:00 -1,3 C -0,4 C -1,4 C 95 % 1006 hPa 0,0 l/m 0,3 m/s (0 Bft) S-SO 0,00 h 105 lux -2,0 C -1,3 C
08.04.2008 07:00 -1,4 C -0,4 C -1,3 C 95 % 1006 hPa 0,0 l/m 0,5 m/s (1 Bft) S-SO 0,00 h 1,55 klux -2,0 C -1,4 C
08.04.2008 08:00 -1,1 C -0,2 C -1,2 C 94 % 1006 hPa 0,0 l/m 0,9 m/s (1 Bft) O-SO 0,00 h 5,81 klux -1,9 C -1,1 C
08.04.2008 09:00 -0,5 C 0,3 C -0,8 C 94 % 1006 hPa 0,0 l/m 1,1 m/s (1 Bft) O 0,00 h 8,20 klux -1,3 C -1,2 C
08.04.2008 10:00 0,6 C 1,2 C -0,1 C 92 % 1006 hPa 0,0 l/m 1,0 m/s (1 Bft) O 0,00 h 13,4 klux -0,6 C -0,5 C
08.04.2008 11:00 1,2 C 2,1 C 0,6 C 88 % 1006 hPa 0,0 l/m 2,5 m/s (2 Bft) O 0,00 h 18,5 klux -0,6 C -1,3 C
08.04.2008 12:00 2,6 C 3,5 C 1,8 C 81 % 1006 hPa 0,0 l/m 3,0 m/s (2 Bft) O-SO 0,00 h 33,8 klux -0,4 C -1,1 C
08.04.2008 13:00 4,1 C 6,2 C 3,8 C 74 % 1006 hPa 0,4 l/m 2,8 m/s (2 Bft) O-SO 0,17 h 49,0 klux -0,1 C 1,1 C
08.04.2008 14:00 4,9 C 11,7 C 4,7 C 71 % 1005 hPa 1,1 l/m 3,2 m/s (2 Bft) O-SO 1,00 h 64,8 klux 0,1 C 1,2 C
08.04.2008 15:00 6,4 C 14,2 C 5,5 C 65 % 1005 hPa 0,7 l/m 3,9 m/s (3 Bft) O-SO 0,67 h 53,0 klux 0,3 C 1,4 C
08.04.2008 16:00 7,7 C 12,6 C 6,0 C 56 % 1004 hPa 0,4 l/m 3,8 m/s (3 Bft) SO 0,50 h 46,2 klux -0,4 C 3,2 C
08.04.2008 17:00 8,1 C 12,8 C 6,3 C 55 % 1004 hPa 0,4 l/m 2,7 m/s (2 Bft) SO 0,50 h 30,9 klux -0,5 C 5,7 C
08.04.2008 18:00 6,9 C 9,4 C 5,7 C 57 % 1003 hPa 0,0 l/m 1,7 m/s (2 Bft) O-SO 0,00 h 10,1 klux -1,1 C 6,4 C
08.04.2008 19:00 5,7 C 7,3 C 4,7 C 66 % 1003 hPa 0,0 l/m 0,0 m/s (0 Bft) N 0,00 h 3,30 klux -0,2 C 5,7 C
08.04.2008 20:00 4,1 C 5,6 C 3,4 C 73 % 1003 hPa 0,0 l/m 0,0 m/s (0 Bft) N 0,00 h 132 lux -0,4 C 4,1 C
08.04.2008 21:00 3,2 C 4,6 C 2,7 C 78 % 1003 hPa 0,0 l/m 0,0 m/s (0 Bft) N 0,00 h 1 lux -0,3 C 3,2 C
08.04.2008 22:00 2,8 C 4,0 C 2,3 C 81 % 1003 hPa 0,0 l/m 0,0 m/s (0 Bft) N 0,00 h 0 lux -0,2 C 2,8 C
08.04.2008 23:00 2,5 C 3,6 C 1,9 C 82 % 1003 hPa 0,0 l/m 0,0 m/s (0 Bft) N 0,00 h 0 lux -0,3 C 2,5 C
09.04.2008 00:00 2,3 C 3,3 C 1,8 C 85 % 1003 hPa 0,0 l/m 0,0 m/s (0 Bft) N 0,00 h 0 lux -0,0 C 2,3 C
09.04.2008 01:00 2,1 C 3,0 C 1,6 C 85 % 1002 hPa 0,0 l/m 0,0 m/s (0 Bft) N 0,00 h 0 lux -0,1 C 2,1 C
09.04.2008 02:00 1,8 C 2,8 C 1,3 C 86 % 1002 hPa 0,0 l/m 0,0 m/s (0 Bft) N 0,00 h 0 lux -0,2 C 1,8 C
09.04.2008 03:00 1,3 C 2,3 C 0,9 C 88 % 1002 hPa 0,0 l/m 0,0 m/s (0 Bft) N 0,00 h 0 lux -0,4 C 1,3 C
09.04.2008 04:00 0,9 C 1,9 C 0,4 C 88 % 1001 hPa 0,0 l/m 0,0 m/s (0 Bft) N 0,00 h 0 lux -0,8 C 0,9 C
09.04.2008 05:00 0,6 C 1,4 C 0,2 C 90 % 1000 hPa 0,0 l/m 0,0 m/s (0 Bft) N 0,00 h 0 lux -0,9 C 0,6 C
09.04.2008 06:00 0,7 C 1,5 C 0,3 C 90 % 1000 hPa 0,0 l/m 0,0 m/s (0 Bft) N 0,00 h 198 lux -0,7 C 0,7 C
09.04.2008 07:00 0,9 C 1,6 C 0,5 C 91 % 1000 hPa 0,0 l/m 0,0 m/s (0 Bft) N 0,00 h 3,10 klux -0,5 C 0,9 C
09.04.2008 08:00 2,0 C 2,2 C 1,5 C 89 % 1000 hPa 0,0 l/m 0,0 m/s (0 Bft) SW 0,00 h 8,10 klux 0,4 C 2,0 C
09.04.2008 09:00 3,2 C 3,4 C 3,0 C 85 % 1000 hPa 0,0 l/m 0,7 m/s (1 Bft) S-SO 0,00 h 14,2 klux 1,0 C 2,9 C
09.04.2008 10:00 6,3 C 6,0 C 5,5 C 76 % 1000 hPa 0,0 l/m 1,5 m/s (1 Bft) SO 0,00 h 30,3 klux 2,2 C 5,7 C
09.04.2008 11:00 7,1 C 7,7 C 6,7 C 69 % 1000 hPa 0,0 l/m 2,3 m/s (2 Bft) SO 0,00 h 29,9 klux 1,8 C 5,7 C
09.04.2008 12:00 8,0 C 9,3 C 7,9 C 63 % 1000 hPa 0,0 l/m 3,0 m/s (2 Bft) O-SO 0,00 h 27,6 klux 1,4 C 5,0 C
09.04.2008 13:00 8,6 C 10,2 C 8,8 C 60 % 999 hPa 0,0 l/m 3,7 m/s (3 Bft) O-NO 0,00 h 35,8 klux 1,3 C 4,2 C
09.04.2008 14:00 8,5 C 10,3 C 8,9 C 61 % 998 hPa 0,0 l/m 4,4 m/s (3 Bft) O-SO 0,00 h 26,9 klux 1,4 C 3,1 C
09.04.2008 15:00 7,6 C 9,1 C 7,6 C 64 % 998 hPa 0,0 l/m 4,2 m/s (3 Bft) O-SO 0,00 h 12,8 klux 1,2 C 2,3 C
09.04.2008 16:00 7,4 C 8,4 C 6,7 C 69 % 998 hPa 0,0 l/m 4,2 m/s (3 Bft) O-SO 0,00 h 14,0 klux 2,0 C 2,2 C
09.04.2008 17:00 6,6 C 7,6 C 5,9 C 75 % 998 hPa 0,4 l/m 3,2 m/s (2 Bft) O 0,00 h 7,01 klux 2,4 C 3,1 C
09.04.2008 18:00 5,8 C 6,9 C 5,1 C 83 % 997 hPa 1,1 l/m 2,0 m/s (2 Bft) O 0,00 h 4,03 klux 3,0 C 4,6 C
09.04.2008 19:00 4,8 C 6,0 C 4,3 C 87 % 997 hPa 0,7 l/m 2,9 m/s (2 Bft) O 0,00 h 905 lux 2,8 C 1,3 C
09.04.2008 20:00 4,1 C 5,3 C 3,8 C 89 % 997 hPa 0,4 l/m 2,4 m/s (2 Bft) O-NO 0,00 h 91 lux 2,5 C 2,2 C
09.04.2008 21:00 4,0 C 5,0 C 3,6 C 90 % 996 hPa 0,4 l/m 1,9 m/s (2 Bft) NO 0,00 h 0 lux 2,5 C 2,7 C
09.04.2008 22:00 3,9 C 4,8 C 3,4 C 90 % 996 hPa 0,4 l/m 1,6 m/s (2 Bft) NO 0,00 h 0 lux 2,4 C 2,9 C
09.04.2008 23:00 3,9 C 4,7 C 3,3 C 90 % 996 hPa 0,0 l/m 0,2 m/s (0 Bft) O 0,00 h 0 lux 2,3 C 3,9 C
10.04.2008 00:00 3,6 C 4,5 C 3,1 C 90 % 997 hPa 0,0 l/m 1,6 m/s (2 Bft) O 0,00 h 0 lux 2,1 C 2,6 C
10.04.2008 01:00 3,6 C 4,4 C 3,0 C 89 % 997 hPa 0,0 l/m 0,2 m/s (0 Bft) W 0,00 h 0 lux 1,9 C 3,6 C
10.04.2008 02:00 3,5 C 4,3 C 3,0 C 89 % 997 hPa 0,0 l/m 0,2 m/s (0 Bft) W-SW 0,00 h 0 lux 1,8 C 3,5 C
10.04.2008 03:00 3,2 C 4,1 C 2,6 C 89 % 997 hPa 0,0 l/m 0,2 m/s (0 Bft) O-SO 0,00 h 0 lux 1,6 C 3,2 C
10.04.2008 04:00 2,5 C 3,3 C 2,2 C 91 % 998 hPa 0,0 l/m 0,0 m/s (0 Bft) N 0,00 h 0 lux 1,1 C 2,5 C
10.04.2008 05:00 3,0 C 3,6 C 2,4 C 90 % 997 hPa 0,0 l/m 0,5 m/s (1 Bft) N 0,00 h 0 lux 1,5 C 3,0 C
10.04.2008 06:00 3,1 C 3,7 C 2,5 C 90 % 997 hPa 0,0 l/m 0,2 m/s (0 Bft) W 0,00 h 159 lux 1,6 C 3,1 C
10.04.2008 07:00 3,4 C 3,9 C 2,7 C 90 % 998 hPa 0,0 l/m 0,0 m/s (0 Bft) N 0,00 h 1,68 klux 2,0 C 3,4 C
10.04.2008 08:00 3,8 C 4,3 C 3,0 C 88 % 998 hPa 0,0 l/m 0,4 m/s (1 Bft) O-SO 0,00 h 3,69 klux 2,0 C 3,8 C
10.04.2008 09:00 4,1 C 4,8 C 3,4 C 87 % 998 hPa 0,0 l/m 0,9 m/s (1 Bft) O-NO 0,00 h 5,25 klux 2,2 C 4,0 C
10.04.2008 10:00 5,0 C 5,6 C 4,3 C 83 % 998 hPa 0,0 l/m 1,1 m/s (1 Bft) O-SO 0,00 h 14,3 klux 2,4 C 4,6 C
10.04.2008 11:00 5,3 C 6,3 C 4,7 C 81 % 999 hPa 0,0 l/m 2,4 m/s (2 Bft) O-SO 0,00 h 13,2 klux 2,4 C 3,4 C
10.04.2008 12:00 6,2 C 6,9 C 5,5 C 79 % 999 hPa 0,0 l/m 1,0 m/s (1 Bft) SO 0,00 h 16,6 klux 2,8 C 6,0 C
10.04.2008 13:00 6,7 C 7,5 C 6,2 C 76 % 999 hPa 0,0 l/m 0,7 m/s (1 Bft) O-NO 0,00 h 16,8 klux 2,7 C 6,7 C
10.04.2008 14:00 7,8 C 8,5 C 7,2 C 71 % 999 hPa 0,0 l/m 1,0 m/s (1 Bft) N-NW 0,00 h 20,6 klux 2,9 C 7,6 C
10.04.2008 15:00 8,2 C 9,1 C 7,6 C 69 % 999 hPa 0,0 l/m 1,2 m/s (1 Bft) N-NO 0,00 h 21,2 klux 2,9 C 7,7 C
10.04.2008 16:00 8,6 C 11,3 C 7,9 C 67 % 999 hPa 0,0 l/m 3,5 m/s (3 Bft) SO 0,00 h 32,6 klux 2,8 C 4,6 C
10.04.2008 17:00 8,4 C 11,1 C 7,5 C 69 % 998 hPa 0,0 l/m 3,3 m/s (2 Bft) SO 0,00 h 17,0 klux 3,0 C 4,8 C
10.04.2008 18:00 7,4 C 9,0 C 6,9 C 72 % 998 hPa 0,0 l/m 3,4 m/s (3 Bft) SO 0,00 h 7,00 klux 2,8 C 3,5 C
10.04.2008 19:00 6,5 C 7,7 C 5,9 C 77 % 998 hPa 0,0 l/m 3,0 m/s (2 Bft) O-SO 0,00 h 3,11 klux 2,8 C 3,4 C
10.04.2008 20:00 5,0 C 5,9 C 4,3 C 82 % 999 hPa 0,0 l/m 1,7 m/s (2 Bft) O 0,00 h 220 lux 2,2 C 3,9 C
10.04.2008 21:00 3,7 C 4,5 C 3,3 C 86 % 999 hPa 0,0 l/m 0,7 m/s (1 Bft) O-NO 0,00 h 0 lux 1,6 C 3,7 C
10.04.2008 22:00 3,3 C 3,9 C 2,8 C 88 % 999 hPa 0,0 l/m 0,7 m/s (1 Bft) O 0,00 h 0 lux 1,5 C 3,3 C
10.04.2008 23:00 2,8 C 3,5 C 2,3 C 89 % 999 hPa 0,0 l/m 0,0 m/s (0 Bft) N 0,00 h 0 lux 1,1 C 2,8 C
11.04.2008 00:00 2,9 C 3,6 C 2,6 C 90 % 998 hPa 0,0 l/m 0,0 m/s (0 Bft) N 0,00 h 0 lux 1,5 C 2,9 C
11.04.2008 01:00 3,3 C 3,9 C 2,9 C 90 % 998 hPa 0,0 l/m 0,1 m/s (0 Bft) S-SO 0,00 h 0 lux 1,8 C 3,3 C
11.04.2008 02:00 4,0 C 4,5 C 3,3 C 91 % 998 hPa 0,0 l/m 0,9 m/s (1 Bft) O 0,00 h 0 lux 2,6 C 3,6 C
11.04.2008 03:00 4,0 C 4,8 C 3,4 C 92 % 998 hPa 0,4 l/m 2,3 m/s (2 Bft) O-SO 0,00 h 0 lux 2,9 C 2,2 C
11.04.2008 04:00 4,1 C 4,8 C 3,4 C 92 % 997 hPa 0,0 l/m 2,3 m/s (2 Bft) O-SO 0,00 h 0 lux 2,9 C 2,0 C
11.04.2008 05:00 4,1 C 4,8 C 3,5 C 92 % 997 hPa 0,0 l/m 1,4 m/s (1 Bft) O-SO 0,00 h 0 lux 2,9 C 4,1 C
11.04.2008 06:00 4,2 C 4,9 C 3,5 C 92 % 997 hPa 0,0 l/m 1,2 m/s (1 Bft) O 0,00 h 127 lux 3,1 C 4,1 C
11.04.2008 07:00 4,3 C 5,0 C 3,7 C 93 % 997 hPa 0,0 l/m 0,0 m/s (0 Bft) N 0,00 h 951 lux 3,3 C 4,3 C
11.04.2008 08:00 4,8 C 5,4 C 4,1 C 93 % 997 hPa 0,0 l/m 0,6 m/s (1 Bft) O-SO 0,00 h 4,17 klux 3,8 C 4,8 C
11.04.2008 09:00 5,4 C 5,9 C 4,7 C 92 % 997 hPa 0,0 l/m 0,3 m/s (0 Bft) N-NO 0,00 h 6,76 klux 4,2 C 5,4 C
11.04.2008 10:00 6,1 C 6,8 C 5,3 C 90 % 997 hPa 0,0 l/m 1,0 m/s (1 Bft) O-SO 0,00 h 9,6 klux 4,5 C 6,0 C
11.04.2008 11:00 6,8 C 7,5 C 6,0 C 88 % 997 hPa 0,0 l/m 1,0 m/s (1 Bft) O-SO 0,00 h 12,1 klux 5,0 C 6,6 C
11.04.2008 12:00 7,4 C 8,0 C 6,6 C 87 % 998 hPa 0,0 l/m 0,2 m/s (0 Bft) O-SO 0,00 h 13,0 klux 5,4 C 7,4 C
11.04.2008 13:00 8,3 C 8,6 C 7,6 C 85 % 997 hPa 0,0 l/m 0,8 m/s (1 Bft) SW 0,00 h 15,3 klux 5,9 C 8,3 C
11.04.2008 14:00 8,7 C 9,0 C 8,1 C 84 % 997 hPa 0,0 l/m 0,6 m/s (1 Bft) W 0,00 h 11,6 klux 6,0 C 8,6 C
11.04.2008 15:00 8,6 C 9,1 C 7,8 C 83 % 998 hPa 0,4 l/m 0,4 m/s (1 Bft) W-SW 0,00 h 6,52 klux 5,9 C 8,6 C
11.04.2008 16:00 8,2 C 9,0 C 7,3 C 88 % 998 hPa 1,1 l/m 1,9 m/s (2 Bft) W-SW 0,00 h 9,0 klux 6,2 C 6,4 C
11.04.2008 17:00 7,6 C 8,4 C 6,8 C 87 % 998 hPa 0,7 l/m 2,4 m/s (2 Bft) W-SW 0,00 h 6,36 klux 5,5 C 5,8 C
11.04.2008 18:00 7,1 C 7,9 C 6,5 C 90 % 999 hPa 0,7 l/m 1,6 m/s (1 Bft) W-SW 0,00 h 3,88 klux 5,6 C 6,2 C
11.04.2008 19:00 6,8 C 7,5 C 6,2 C 90 % 1000 hPa 0,4 l/m 0,0 m/s (0 Bft) N 0,00 h 1,09 klux 5,3 C 6,8 C
11.04.2008 20:00 6,2 C 6,9 C 5,6 C 92 % 1000 hPa 0,0 l/m 0,2 m/s (0 Bft) W-SW 0,00 h 116 lux 5,0 C 6,2 C
11.04.2008 21:00 5,4 C 6,2 C 4,9 C 93 % 1001 hPa 0,0 l/m 0,0 m/s (0 Bft) N 0,00 h 0 lux 4,3 C 5,4 C
11.04.2008 22:00 4,6 C 5,5 C 4,3 C 93 % 1002 hPa 0,0 l/m 0,0 m/s (0 Bft) N 0,00 h 0 lux 3,6 C 4,6 C
11.04.2008 23:00 4,0 C 5,2 C 3,9 C 94 % 1003 hPa 0,0 l/m 0,0 m/s (0 Bft) N 0,00 h 0 lux 3,2 C 4,0 C
12.04.2008 00:00 3,1 C 4,4 C 3,3 C 95 % 1004 hPa 0,0 l/m 0,1 m/s (0 Bft) W-SW 0,00 h 0 lux 2,4 C 3,1 C
12.04.2008 01:00 2,5 C 3,6 C 2,8 C 95 % 1004 hPa 0,0 l/m 0,4 m/s (1 Bft) W 0,00 h 0 lux 1,7 C 2,5 C
12.04.2008 02:00 1,9 C 2,9 C 2,2 C 96 % 1005 hPa 0,0 l/m 0,2 m/s (0 Bft) W 0,00 h 0 lux 1,3 C 1,9 C
12.04.2008 03:00 1,1 C 2,3 C 1,6 C 96 % 1006 hPa 0,0 l/m 0,0 m/s (0 Bft) N 0,00 h 0 lux 0,5 C 1,1 C
12.04.2008 04:00 0,5 C 1,7 C 0,9 C 95 % 1006 hPa 0,0 l/m 0,0 m/s (0 Bft) N 0,00 h 0 lux -0,1 C 0,5 C
12.04.2008 05:00 -0,4 C 0,9 C 0,3 C 95 % 1006 hPa 0,0 l/m 0,0 m/s (0 Bft) N 0,00 h 0 lux -1,1 C -0,4 C
12.04.2008 06:00 -1,0 C 0,2 C -0,3 C 96 % 1006 hPa 0,0 l/m 0,0 m/s (0 Bft) N 0,00 h 325 lux -1,6 C -1,0 C
12.04.2008 07:00 -0,9 C 0,0 C -0,4 C 96 % 1006 hPa 0,0 l/m 0,0 m/s (0 Bft) N 0,00 h 5,34 klux -1,5 C -0,9 C
12.04.2008 08:00 1,1 C 1,1 C 1,1 C 94 % 1008 hPa 0,0 l/m 0,0 m/s (0 Bft) W 0,08 h 18,5 klux 0,3 C 1,1 C
12.04.2008 09:00 4,0 C 2,9 C 3,5 C 93 % 1008 hPa 0,0 l/m 0,5 m/s (1 Bft) SO 0,92 h 38,8 klux 3,0 C 4,0 C
12.04.2008 10:00 7,4 C 6,6 C 5,8 C 84 % 1008 hPa 0,0 l/m 2,9 m/s (2 Bft) S-SW 1,00 h 49,2 klux 4,8 C 4,7 C
12.04.2008 11:00 10,0 C 13,2 C 10,5 C 68 % 1008 hPa 0,0 l/m 4,6 m/s (3 Bft) W-SW 0,98 h 59,4 klux 4,2 C 4,5 C
12.04.2008 12:00 11,8 C 15,3 C 13,1 C 58 % 1008 hPa 0,0 l/m 5,9 m/s (4 Bft) W-SW 0,60 h 54,0 klux 3,7 C 5,4 C
12.04.2008 13:00 11,9 C 13,8 C 12,3 C 54 % 1008 hPa 0,0 l/m 5,5 m/s (4 Bft) W 0,50 h 47,9 klux 3,0 C 6,0 C
12.04.2008 14:00 13,3 C 15,4 C 12,7 C 47 % 1008 hPa 0,0 l/m 6,7 m/s (4 Bft) W-SW 0,42 h 43,9 klux 2,2 C 6,7 C
12.04.2008 15:00 12,8 C 13,9 C 12,1 C 46 % 1008 hPa 0,0 l/m 5,2 m/s (3 Bft) W-SW 0,08 h 23,7 klux 1,4 C 7,5 C
12.04.2008 16:00 12,0 C 12,6 C 11,2 C 51 % 1008 hPa 0,0 l/m 4,1 m/s (3 Bft) SW 0,00 h 9,3 klux 2,2 C 7,8 C
12.04.2008 17:00 11,7 C 12,1 C 10,7 C 54 % 1008 hPa 0,0 l/m 4,1 m/s (3 Bft) W-SW 0,00 h 9,3 klux 2,6 C 7,7 C
12.04.2008 18:00 11,5 C 12,0 C 10,4 C 50 % 1009 hPa 0,0 l/m 5,6 m/s (4 Bft) W-SW 0,00 h 7,91 klux 1,6 C 5,3 C
12.04.2008 19:00 10,9 C 11,6 C 9,8 C 52 % 1009 hPa 0,0 l/m 4,8 m/s (3 Bft) W-SW 0,08 h 3,99 klux 1,4 C 5,6 C
12.04.2008 20:00 9,5 C 10,4 C 8,3 C 58 % 1009 hPa 0,0 l/m 1,1 m/s (1 Bft) SW 0,00 h 144 lux 1,7 C 9,0 C
12.04.2008 21:00 8,0 C 9,0 C 6,8 C 64 % 1009 hPa 0,0 l/m 0,2 m/s (0 Bft) SW 0,00 h 14 lux 1,6 C 8,0 C
12.04.2008 22:00 6,4 C 7,3 C 5,2 C 69 % 1011 hPa 0,0 l/m 0,2 m/s (0 Bft) W-SW 0,00 h 0 lux 1,3 C 6,4 C
12.04.2008 23:00 5,5 C 6,2 C 4,1 C 73 % 1011 hPa 0,0 l/m 0,9 m/s (1 Bft) W 0,00 h 0 lux 1,1 C 5,3 C
13.04.2008 00:00 4,0 C 4,9 C 3,2 C 81 % 1011 hPa 0,0 l/m 0,1 m/s (0 Bft) NW 0,00 h 0 lux 1,0 C 4,0 C
13.04.2008 01:00 3,0 C 4,1 C 2,7 C 83 % 1011 hPa 0,0 l/m 0,0 m/s (0 Bft) N 0,00 h 0 lux 0,4 C 3,0 C
13.04.2008 02:00 2,3 C 3,3 C 2,2 C 86 % 1011 hPa 0,0 l/m 0,0 m/s (0 Bft) N 0,00 h 0 lux 0,3 C 2,3 C
13.04.2008 03:00 2,0 C 2,9 C 2,0 C 88 % 1011 hPa 0,0 l/m 0,0 m/s (0 Bft) N 0,00 h 0 lux 0,2 C 2,0 C
13.04.2008 04:00 1,6 C 2,6 C 1,5 C 89 % 1011 hPa 0,0 l/m 0,0 m/s (0 Bft) N 0,00 h 0 lux -0,0 C 1,6 C
13.04.2008 05:00 2,1 C 2,9 C 2,1 C 90 % 1011 hPa 0,0 l/m 0,0 m/s (0 Bft) N 0,00 h 0 lux 0,6 C 2,1 C
13.04.2008 06:00 2,9 C 3,4 C 2,6 C 90 % 1011 hPa 0,0 l/m 0,0 m/s (0 Bft) N 0,00 h 229 lux 1,5 C 2,9 C
13.04.2008 07:00 3,7 C 4,0 C 3,3 C 90 % 1011 hPa 0,0 l/m 0,0 m/s (0 Bft) N 0,00 h 5,05 klux 2,2 C 3,7 C
13.04.2008 08:00 6,1 C 5,7 C 5,5 C 88 % 1011 hPa 0,0 l/m 0,3 m/s (0 Bft) S-SW 0,00 h 15,4 klux 4,2 C 6,1 C
13.04.2008 09:00 9,0 C 8,3 C 8,1 C 77 % 1011 hPa 0,0 l/m 3,0 m/s (2 Bft) W-SW 0,08 h 24,0 klux 5,3 C 5,8 C
13.04.2008 10:00 9,5 C 9,6 C 8,8 C 75 % 1011 hPa 0,4 l/m 4,5 m/s (3 Bft) W 0,00 h 19,0 klux 5,3 C 4,1 C
13.04.2008 11:00 10,2 C 10,2 C 9,6 C 77 % 1011 hPa 0,4 l/m 4,6 m/s (3 Bft) W 0,42 h 53,5 klux 6,3 C 5,0 C
13.04.2008 12:00 11,4 C 12,2 C 11,6 C 69 % 1012 hPa 0,4 l/m 4,8 m/s (3 Bft) W 0,00 h 27,6 klux 5,8 C 6,1 C
13.04.2008 13:00 9,9 C 11,0 C 9,5 C 80 % 1012 hPa 1,1 l/m 2,5 m/s (2 Bft) SW 0,17 h 31,2 klux 6,7 C 7,7 C
13.04.2008 14:00 11,8 C 14,3 C 9,6 C 70 % 1011 hPa 0,0 l/m 4,6 m/s (3 Bft) W 0,58 h 50,2 klux 6,4 C 6,8 C
13.04.2008 15:00 10,4 C 12,8 C 8,8 C 78 % 1011 hPa 1,1 l/m 3,4 m/s (2 Bft) W-SW 0,50 h 39,9 klux 6,7 C 7,3 C
13.04.2008 16:00 11,5 C 14,8 C 9,3 C 75 % 1011 hPa 1,8 l/m 2,5 m/s (2 Bft) W 0,17 h 20,3 klux 7,3 C 9,4 C
13.04.2008 17:00 9,1 C 10,3 C 8,2 C 82 % 1011 hPa 0,4 l/m 2,3 m/s (2 Bft) W 0,00 h 9,5 klux 6,2 C 7,1 C
13.04.2008 18:00 8,9 C 9,4 C 7,9 C 84 % 1011 hPa 0,7 l/m 3,2 m/s (2 Bft) W 0,00 h 5,10 klux 6,3 C 5,7 C
13.04.2008 19:00 8,7 C 9,2 C 7,7 C 85 % 1011 hPa 0,4 l/m 0,2 m/s (0 Bft) W 0,08 h 5,76 klux 6,3 C 8,7 C
13.04.2008 20:00 7,4 C 8,2 C 6,8 C 89 % 1011 hPa 0,0 l/m 0,2 m/s (0 Bft) S-SO 0,00 h 208 lux 5,8 C 7,4 C
13.04.2008 21:00 6,7 C 7,5 C 6,4 C 92 % 1011 hPa 0,0 l/m 0,0 m/s (0 Bft) N 0,00 h 10 lux 5,5 C 6,7 C
13.04.2008 22:00 6,4 C 7,2 C 6,1 C 93 % 1011 hPa 0,0 l/m 0,0 m/s (0 Bft) N 0,00 h 0 lux 5,3 C 6,4 C
13.04.2008 23:00 6,5 C 7,1 C 6,1 C 93 % 1011 hPa 0,0 l/m 0,0 m/s (0 Bft) N 0,00 h 0 lux 5,5 C 6,5 C
Min-Datum _ 08.04.08 08.04.08 08.04.08 12.04.08 07.04.08 - 07.04.08 - - - 08.04.08 07.04.08
_ Min-Zeit 01:40 02:10 02:40 14:10 05:30 - 00:10 - - - 01:40 15:30
Minimum _ -2,4 C -1,4 C -2,0 C 43 % 996 hPa - 0,0 m/s (0 Bft) - - - -3,2 C -6,1 C
Max-Datum _ 12.04.08 13.04.08 12.04.08 12.04.08 13.04.08 07.04.08 12.04.08 - 07.04.08 12.04.08 13.04.08 13.04.08
_ Max-Zeit 14:05 16:02 12:45 01:50 08:07 16:20 14:05 - 12:40 14:05 13:47 16:32
Maximum _ 14,3 C 16,4 C 13,9 C 96 % 1012 hPa 2,9 l/m 8,6 m/s
W-SW (5 Bft)
- 0,17 h 84,6 klux 8,1 C 12,3 C
Durchschnitt _ 4,6 C 5,6 C 4,0 C 83 % 1003 hPa #31,0 l/m 1,5 m/s (1 Bft) O-SO #11:50 h 10,6 klux 1,7 C 3,1 C